Regional Weather Roundup
Issued by NWS Grand Forks, ND

Home | Current Version | Previous Version | Graphics & Text | Print | Product List | Glossary On
Versions: 1 2 3 4 5 6 7 8 9 10 11 12 13 14 15 16 17 18 19 20 21 22 23 24 25 26 27 28 29 30 31 32 33 34 35 36 37 38 39 40 41 42 43 44 45 46 47 48 49 50
000
ASUS43 KFGF 290331
RWRFGF
PRAIRIE TO PINES  WEATHER ROUNDUP
NATIONAL WEATHER SERVICE EASTERN NORTH DAKOTA/GRAND FORKS ND
1000 PM CDT TUE JUL 28 2015

 **SATELLITE DATA USED TO AUGMENT SKY COVER AT AUTOMATED STATIONS**
 *****  WEATHER ACROSS EASTERN NORTH DAKOTA  *****

CITY           SKY/WX    TMP DP  RH WIND       PRES   REMARKS
GRAND FORKS    MOCLDY    68  50  52 SW26G39   29.58F
GRAND FRKS AFB CLOUDY    68  50  52 SW22G45   29.58F
GRAND FRKS NWS   N/A     68 N/A N/A SW32        N/A
DEVILS LAKE    CLOUDY    61  52  72 W41G47    29.51S
FARGO          CLEAR     70  49  47 SW22G29   29.75S
WAHPETON ARPT  CLEAR     66  46  48 W13       29.84S
$$

 ***** WEATHER ACROSS CENTRAL AND WESTERN NORTH DAKOTA  *****

CITY           SKY/WX    TMP DP  RH WIND       PRES   REMARKS
BISMARCK       PTCLDY    65  45  48 W29G48    29.87R
MINOT          LGT RAIN  59  53  80 W37G55    29.60R
JAMESTOWN      PTCLDY    65  46  50 W28G47    29.75S
MINOT AFB      CLOUDY    59  58  98 W35G49    29.57R
GARRISON         N/A     57  51  80 W36G56    29.75R
WILLISTON      CLOUDY    58  51  78 W20G30    29.88R
DICKINSON      PTCLDY    62  44  51 W14       29.93R
HETTINGER      CLEAR     58  43  57 W12       30.02R
$$

 *****  OTHER AIRPORT OBSERVATIONS IN OUR AREA  *****

CITY           SKY/WX    TMP DP  RH WIND       PRES   REMARKS
WALHALLA       FAIR      61  59  94 MISG      29.39F
GRAFTON AIRPOR CLOUDY    68  52  56 SW35G44   29.50F
VALLEY CITY AR NOT AVBL
CANDO          CLOUDY    61  55  82 W32G44    29.45R
CAVALIER APRT  CLOUDY    64  54  68 SW20G37   29.43F
GWINNER        FAIR      68  48  49 W22G28    29.85R
SHEYENNE NWR     N/A     69  48  47 W16       29.95S
ROLLA          LGT RAIN  59  59 100 W17G24    29.41R
 ***** THE ABOVE OBSERVATIONS ARE NON NWS ARE NOT QUALITY
       CONTROLLED AND MAY MIS-REPORT RAIN FOR SNOW...
$$

  *****  WEATHER ACROSS NORTHERN MINNESOTA  *****

CITY           SKY/WX    TMP DP  RH WIND       PRES   REMARKS
FLAG ISLAND    CLOUDY    72  57  60 S18G31    29.52F
WARROAD        MOCLDY    70  55  60 S21G28    29.56F
ROSEAU         MOCLDY    68  54  60 SW23G35   29.55F
HALLOCK        CLOUDY    66  52  59 S22G31    29.48F
THF RVR FALLS  MOCLDY    66  50  55 SW18G28   29.62F
BAUDETTE       MOCLDY    69  53  56 S15G24    29.62F
WASKISH        PTCLDY    68  55  64 S8        29.67F
CROOKSTON      CLOUDY    66  52  59 SW23G32   29.64F
STEPHEN NDAWN    N/A     66  54  63 MISG        N/A
GREENBUSH NDAW   N/A     66  52  59 SW17        N/A
$$
  *****  WEATHER ACROSS CENTRAL AND WEST MINNESOTA  *****

CITY           SKY/WX    TMP DP  RH WIND       PRES   REMARKS
FOSSTON        CLEAR     63  52  67 SW25G33   29.71F
BEMIDJI        CLEAR     69  49  49 SW17G28   29.74S
PARK RAPIDS    PTCLDY    70  50  49 SW17      29.79S
ELBOW LAKE     FAIR      67  52  58 W12G20    29.87R
WADENA         CLEAR     70  50  49 W16G26    29.83S
DETROIT LAKES  CLEAR     68  48  49 SW16G28   29.81S
MOORHEAD       CLEAR     68  50  52 SW17G25   29.77F
FERGUS FALLS   CLEAR     66  52  59 SW10      29.84R
MORRIS MN      CLEAR     66  54  63 W8        29.89S
STAPLES        CLEAR     70  48  46 W13       29.84R
$$
  *****  WEATHER ELSEWHERE ACROSS MINNESOTA  *****

CITY           SKY/WX    TMP DP  RH WIND       PRES   REMARKS
DULUTH         MOCLDY    76  67  73 W12       29.80R
INTRNTL FALLS  CLEAR     68  55  63 S6        29.68F
ELY            PTCLDY    75  64  69 SW12G18   29.75S
CLOQUET        CLEAR     73  57  56 W13G22    29.82R
WHEATON        CLEAR     66  50  55 W9G16     29.89S
BRAINERD       CLEAR     68  57  68 SW9       29.83R
HIBBING        CLEAR     71  57  61 SW8       29.79R
ALEXANDRIA     CLEAR     70  51  51 W16       29.89R
SAINT CLOUD    CLEAR     67  60  78 SW7       29.87R
MINNEAPOLIS    PTCLDY    76  59  55 W10       29.89R
$$

  *****  WEATHER ACROSS SOUTH DAKOTA  *****

CITY           SKY/WX    TMP DP  RH WIND       PRES   REMARKS
SIOUX FALLS    PTCLDY    66  59  78 CALM      29.98R
BROOKINGS      CLEAR     64  54  68 W7        30.00R
WATERTOWN      CLEAR     69  52  54 W10       29.95R
HURON          CLEAR     63  56  78 W7        29.97R
SISSETON         N/A     69  51  52 W13G18    29.88R
ABERDEEN       CLEAR     67  51  56 W10       29.93R
MITCHELL       CLEAR     69  53  56 W8        29.99R
PIERRE         CLEAR     70  50  49 NW15      30.02R
MOBRIDGE       CLEAR     68  47  46 W12       29.94R
RAPID CITY     CLEAR     63  45  51 N14       30.13R
$$

  *****  SOME WEATHER IN NEARBY STATES *****

CITY           SKY/WX    TMP DP  RH WIND       PRES   REMARKS
GLASGOW MT     MOCLDY    60  50  69 W7        29.97R
GREAT FALLS MT PTCLDY    65  37  35 W8        30.14R
CHEYENNE WY    CLOUDY    71  23  16 N8        30.27R
SCOTTSBLUFF NE CLEAR     66  48  52 N6        30.18R
OMAHA NE       CLOUDY    74  66  76 N9        29.96R
DES MOINES IA  TSTM      72  69  90 S10       29.94F
DAVENPORT IA   CLOUDY    77  74  90 N7        29.92R
CHICAGO IL     MOCLDY    81  73  76 SW5       29.94S
EAU CLAIRE WI  CLOUDY    77  73  87 SW8       29.86R
LA CROSSE WI   CLOUDY    78  70  76 S9        29.88R
$$

  *****  SOME NATIONAL WEATHER *****

CITY           SKY/WX    TMP DP  RH WIND       PRES   REMARKS
LA GUARDIA NY  PTCLDY    84  68  58 S10       29.96F
RALEIGH NC     LGT RAIN  77  74  90 CALM      30.00R
ATLANTA GA     MOCLDY    82  72  71 N7        30.01R
NEW ORLEANS LA PTCLDY    87  72  60 SW10      29.99R HX  93
OKLAHOMA CITY  PTCLDY    78  68  71 S5        29.94R
ALBUQUERQUE NM LGT RAIN  81  51  35 SE13      30.17R
SALT LAKE CITY CLEAR     73  23  15 NW10      30.20R
LOS ANGELES CA PTCLDY    70  65  84 W13       29.86R
BOISE ID       CLEAR     76  36  23 NW6       30.17S
SEATTLE WA     PTCLDY    78  48  34 N10       30.20R
$$

*** WEATHER ACROSS MANITOBA...SASKATCHEWAN AND ONTARIO ***
                ***ONTARIO***

CITY           SKY/WX    TMP DP  RH WIND       PRES   REMARKS
GERALDTON      CLEAR     70  61  73 S12G18    29.80F
THUNDER BAY    PTCLDY    66  63  88 NE9       29.75F
SIOUX LOOKOUT  PTCLDY    70  61  73 SW8G20    29.62R
TORONTO        MOCLDY    79  59  50 E2        29.99R
BIG TROUT LK   CLOUDY    79  64  61 SE10G17   29.50F
PICKLE LAKE    NOT AVBL
DRYDEN         CLEAR     70  54  56 SW20G31   29.62R
KENORA         MOCLDY    70  55  60 S17G29    29.55F
$$
                *** MANITOBA***

CITY           SKY/WX    TMP DP  RH WIND       PRES   REMARKS
BRANDON        LGT RAIN  59  59 100 W15       29.31R
DAUPHIN        CLOUDY    63  59  88 W7        29.29S
ISLAND LAKE    MOCLDY    68  64  88 SE9       29.34F
PILOT MOUND      N/A     59  55  88 SW23G30     N/A
THE PAS        LGT RAIN  61  57  88 N26G33    29.44R
THOMPSON       LGT RAIN  61  59  94 NE17G25   29.43F
WINNIPEG       MOCLDY    68  54  60 S21G33    29.36F
LYNN LAKE        N/A    N/A N/A N/A MISG        N/A
CHURCHILL      LGT RAIN  54  54 100 E10       29.70R
GILLAM         LGT RAIN  64  61  88 NE17G24   29.47F
$$
                ***SASKATCHEWAN***

CITY           SKY/WX    TMP DP  RH WIND       PRES   REMARKS
ESTEVAN        LGT RAIN  57  52  82 NW38G63   29.68R
KINDERSLEY     MOCLDY    61  48  63 NW7       29.92
LLOYDMINSTER   PTCLDY    63  50  63 W9        29.89R
PRINCE ALBERT  MOCLDY    61  57  88 NW9       29.71S
REGINA         PTCLDY    55  55 100 W12       29.75R
YORKTON        LGT RAIN  57  54  88 NW25G43   29.45R
N. BATTLEFORD  PTCLDY    64  54  68 NW10      29.85R
LA RONGE       MOCLDY    68  48  49 NW7       29.70R
SASKATOON      MOCLDY    61  57  88 NW8       29.81R
SWIFT CURRENT  PTCLDY    61  52  72 W9        29.92R
$$
NOTE: THESE ARE AUTOMATED STATIONS WITH LIMITED QUALITY CONTROL
      "FAIR" INDICATES FEW OR NO CLOUDS BELOW 12,000 FEET WITH NO
      SIGNIFICANT WEATHER AND/OR OBSTRUCTIONS TO VISIBILITY.
      SKY/WX - SKY CONDITION AND SIGNIFICANT WEATHER.
      TMP - AIR TEMPERATURE.    DP   - DEWPOINT TEMPERATURE.
      RH  - RELATIVE HUMIDITY.  PRES - PRESSURE.
      HX  - HEAT INDEX.         WCI  - WIND CHILL INDEX.
$


USA.gov is the U.S. government's official web portal to all federal, state and local government web resources and services.